Theta_e
327 326 327 326 325 326 326 327 327 326 326 326 327 327 325 322 321 321 322 318 323 321 319 317 316 316 315 314 314 314 314 314 312 313 312 312 312 312 311 310 310 311 310
326 326 325 325 325 325 326 327 327 326 326 326 326 327 326 321 319 321 321 321 320 321 318 315 315 315 315 314 313 313 313 312 312 311 311 310 310 309 309 309 309 309 309
328 325 324 323 324 325 326 327 327 327 326 326 326 326 326 322 318 318 320 320 318 316 316 314 314 314 314 314 313 312 313 311 311 310 309 309 309 308 308 308 308 308 308
330 328 326 323 324 325 326 327 327 326 325 325 325 326 325 322 318 317 318 318 319 317 314 313 313 313 314 314 314 313 312 312 311 309 309 308 307 307 307 307 307 307 307
330 330 329 328 326 325 326 326 326 326 325 324 324 325 324 322 319 315 316 315 316 316 316 312 311 311 312 314 315 314 313 313 311 310 309 307 307 305 306 305 305 305 305
329 329 329 329 328 326 326 326 326 326 325 324 320 320 323 322 319 316 315 314 314 313 313 312 309 306 309 312 314 314 314 313 311 310 309 308 306 305 305 304 304 304 304
329 329 328 328 328 326 325 325 325 324 323 323 319 317 316 317 318 316 315 315 313 311 310 309 307 306 305 310 312 314 315 314 312 311 309 307 306 305 304 303 303 303 303
329 328 328 327 327 326 325 324 324 322 322 323 316 315 310 312 312 314 315 313 313 311 308 306 305 303 304 305 308 311 313 314 313 311 309 308 307 306 304 303 302 302 302
329 329 327 328 327 326 325 324 324 322 320 321 321 316 310 309 314 311 310 311 311 310 308 306 302 301 299 302 303 306 310 312 313 312 310 308 307 306 304 303 302 301 301
328 329 328 328 328 327 325 326 325 324 323 319 319 319 318 316 308 306 306 305 308 307 308 307 302 299 298 298 300 302 305 306 310 309 308 308 307 306 305 303 301 301 301
328 328 328 328 327 328 327 326 325 324 324 323 320 320 319 319 314 309 308 313 303 305 304 306 305 301 299 298 298 299 301 303 305 305 305 305 305 305 304 303 302 301 300
328 328 328 328 327 327 327 326 326 325 324 324 324 323 319 315 313 310 307 311 314 315 305 305 302 302 302 299 296 296 300 303 304 303 303 303 303 303 303 302 301 300 300
326 326 327 327 327 327 327 326 326 325 324 323 324 323 322 321 322 318 314 312 309 313 308 304 304 302 297 297 296 294 298 302 303 302 302 301 301 301 301 301 300 299 299
327 327 327 326 326 326 326 325 325 325 325 324 323 323 323 322 321 320 316 314 308 304 300 304 301 300 298 297 295 293 295 299 300 302 301 300 300 300 299 299 299 298 298
328 327 326 325 325 325 325 324 324 323 323 323 322 321 320 321 321 320 319 316 312 307 309 302 299 295 295 292 293 293 293 296 299 301 300 300 300 299 299 299 298 298 298
328 327 326 324 324 325 324 324 323 322 321 320 320 319 318 318 318 318 317 316 313 311 307 301 294 290 291 290 291 292 292 294 297 299 299 299 299 299 298 298 297 297 297
329 327 326 325 324 324 324 322 321 321 319 319 319 317 317 318 316 317 316 315 314 312 308 296 290 290 290 289 289 291 292 293 294 296 297 299 298 298 297 297 296 296 296
327 327 326 324 324 323 324 321 319 319 318 317 317 317 316 316 316 316 315 314 314 312 308 302 287 287 287 289 290 289 289 291 291 294 296 297 297 298 297 296 296 295 295
325 325 324 323 323 323 322 322 321 319 318 318 318 317 317 316 314 314 313 308 304 298 300 295 291 288 287 288 288 288 288 288 289 291 295 295 295 297 296 296 295 294 294
323 322 322 322 322 322 321 320 319 318 318 318 317 317 314 311 310 307 303 301 298 295 293 291 288 287 287 286 287 285 283 286 285 287 290 291 293 294 294 294 294 293 294
317 319 318 317 317 316 313 315 315 315 314 308 302 301 300 296 295 300 300 298 296 291 290 290 288 287 285 284 284 285 285 284 285 286 286 288 290 290 292 292 291 292 293
302 301 301 302 302 300 296 298 302 303 301 299 297 295 294 290 295 295 295 296 299 295 289 290 289 287 287 286 285 285 285 282 282 286 286 287 288 287 289 291 291 291 292
297 295 296 296 295 296 295 295 295 301 299 298 295 294 293 291 291 294 294 294 293 294 293 291 288 288 286 286 286 285 285 285 285 286 286 287 290 287 290 289 290 290 290
293 292 293 294 293 292 294 294 292 297 295 294 293 294 293 291 291 291 291 288 288 288 289 289 288 288 288 288 288 287 286 286 285 284 287 285 288 287 289 289 288 288 289
290 289 289 289 289 290 292 292 291 291 289 288 289 290 290 290 289 290 287 286 286 286 289 290 290 290 290 290 290 288 284 285 284 284 284 285 285 285 286 287 287 286 287
286 287 287 287 286 289 291 290 290 290 287 287 287 287 287 288 290 290 287 286 285 285 286 286 287 289 289 289 289 288 288 285 285 284 286 284 284 284 285 284 284 284 285
Wind_Speed
7 6 5 5 5 5 5 4 4 4 4 5 5 5 5 4 5 3 1 4 6 6 4 2 2 2 2 2 3 2 3 4 3 6 6 6 7 8 8 8 9 11 12
7 7 6 6 6 6 6 5 5 5 5 5 6 6 6 5 5 5 5 4 3 5 4 2 2 2 2 2 1 1 3 1 3 4 4 4 5 5 6 7 9 10 11
9 8 7 7 7 6 7 5 6 5 5 5 7 6 6 6 5 5 5 6 7 5 5 4 3 4 4 3 3 4 3 3 3 3 2 2 3 4 5 8 9 9 10
11 9 7 7 7 6 6 6 6 6 6 6 6 6 6 6 7 7 6 5 6 7 7 8 7 6 6 6 7 7 5 5 3 3 4 2 2 4 5 6 7 8 9
12 10 8 8 8 7 7 7 7 7 6 7 6 5 6 6 7 7 8 8 7 6 6 10 10 8 9 10 10 9 8 8 7 8 6 3 1 2 4 4 5 6 7
14 12 9 9 8 8 8 8 9 7 7 6 5 6 6 6 7 7 8 7 8 9 8 7 7 7 10 11 12 12 12 11 10 9 7 6 4 2 1 2 2 3 4
15 14 10 10 10 10 10 10 9 9 7 6 4 5 6 8 9 9 8 8 10 10 9 8 6 5 7 14 14 15 14 14 13 11 9 6 5 5 2 1 1 2 3
16 14 14 12 13 10 11 11 10 8 8 8 5 3 3 6 10 10 9 9 11 8 9 10 10 10 8 7 9 14 15 15 14 12 11 10 8 7 5 2 2 3 5
17 16 17 14 13 11 10 12 12 14 9 8 13 5 3 6 1 4 12 10 12 10 10 12 12 12 11 9 10 13 17 17 15 13 12 12 10 10 7 6 4 3 4
18 16 16 16 14 11 13 13 12 13 12 10 5 10 11 4 4 3 5 8 11 13 14 10 11 12 13 10 12 10 8 9 12 12 12 12 12 11 9 7 5 4 5
18 17 17 17 15 12 14 15 14 15 12 11 11 9 10 10 9 8 9 8 6 10 9 10 11 11 14 12 10 9 14 11 10 8 10 11 11 11 10 9 8 6 7
11 17 16 15 15 14 15 14 15 17 14 13 11 12 9 7 7 8 10 12 13 9 8 10 9 10 10 11 13 13 19 19 18 17 15 13 12 13 12 11 9 7 8
11 14 17 16 14 15 15 13 13 15 14 14 15 12 11 12 11 10 9 9 9 7 6 9 10 8 7 9 10 18 19 19 17 16 16 15 16 16 13 13 11 9 10
12 15 14 15 17 16 15 14 11 11 13 13 17 13 11 11 11 11 10 10 8 6 5 9 4 8 7 7 9 19 12 19 21 21 20 18 17 17 17 14 13 13 12
11 14 15 15 16 15 15 15 11 13 13 13 13 14 14 10 9 9 10 10 11 9 9 5 5 1 3 6 10 13 11 17 23 22 20 20 20 17 17 18 15 13 14
16 14 15 15 14 15 15 15 12 13 12 11 10 13 11 10 11 10 9 10 9 11 10 2 3 3 6 6 10 12 13 19 24 22 21 20 20 20 17 18 16 15 15
14 14 15 15 15 15 15 14 14 14 13 13 12 12 14 14 10 9 9 9 10 9 11 2 2 3 7 8 8 10 10 11 11 18 20 21 19 21 19 19 19 18 17
14 14 14 14 15 15 14 13 13 12 13 12 13 13 14 10 13 12 9 11 10 9 7 7 3 3 4 8 8 10 8 8 9 16 22 22 18 20 19 20 21 20 20
12 13 13 14 14 13 13 13 13 12 12 13 13 13 13 13 12 9 8 6 4 3 3 3 3 1 2 5 5 6 7 7 7 11 20 21 22 19 21 20 21 20 19
11 10 12 13 12 12 11 11 11 11 12 11 11 10 9 8 8 6 5 6 4 4 3 3 2 3 2 2 4 6 5 4 6 5 11 11 12 15 21 21 21 20 18
7 8 9 8 7 8 6 9 9 9 9 6 4 2 2 2 3 5 4 5 6 4 3 4 3 2 4 3 6 4 5 4 5 5 5 7 7 8 10 17 19 18 20
2 3 4 5 5 2 4 6 6 5 4 5 6 5 5 3 2 3 3 3 8 6 4 3 2 2 3 4 4 5 4 4 4 7 7 8 6 9 8 9 17 20 22
1 2 2 3 3 3 2 2 4 4 5 5 5 4 3 2 1 1 1 1 1 3 3 3 3 4 3 6 7 7 7 6 3 3 8 8 7 9 7 8 18 19 19
3 3 3 3 4 3 2 4 5 3 4 4 4 3 2 3 3 1 3 4 4 3 2 2 2 3 2 5 7 5 6 4 2 3 5 5 4 6 3 5 10 14 16
3 3 3 4 4 3 5 5 5 4 4 5 4 5 3 4 4 5 5 4 3 3 3 1 2 2 5 9 8 5 5 4 3 2 5 3 2 2 1 3 3 8 12
4 4 5 4 4 5 8 7 5 4 4 4 4 3 6 3 6 7 5 3 4 3 4 4 4 5 5 3 7 3 4 3 1 2 6 6 3 2 3 2 2 2 2
Wind_Direction
191 190 194 193 192 189 194 194 197 190 189 195 196 205 186 190 168 147 113 29 131 144 135 137 146 133 110 103 101 110 84 96 83 73 66 65 56 56 53 45 41 37 33
196 195 196 203 205 203 197 203 200 203 208 208 211 213 207 202 214 188 162 138 97 137 156 162 218 220 196 161 120 181 125 101 85 67 73 71 71 56 47 42 40 37 31
203 200 199 203 210 208 213 210 204 213 224 216 223 216 219 214 212 207 210 176 158 152 175 192 220 234 232 210 191 210 187 202 177 137 127 106 72 70 51 43 34 29 29
208 205 210 213 205 207 214 217 212 216 224 224 229 228 225 211 214 216 217 225 196 187 186 201 210 221 230 225 211 210 214 199 202 200 185 159 109 59 45 41 33 24 25
213 219 216 216 206 211 216 221 222 229 222 225 236 239 227 222 216 216 222 226 236 232 218 190 203 211 224 227 221 214 213 207 208 205 204 195 143 89 62 49 35 28 22
212 215 221 220 213 217 222 217 225 218 239 238 220 230 230 232 232 227 227 224 230 234 238 231 208 216 225 230 229 223 217 212 210 209 218 205 191 176 114 73 36 29 28
212 215 218 220 218 223 225 222 220 228 221 221 215 224 238 238 237 233 229 230 229 231 236 237 236 237 215 229 230 227 225 218 209 215 219 215 205 209 188 198 301 348 353
213 213 217 221 220 222 224 221 215 216 233 204 209 238 237 226 236 231 227 231 236 230 232 230 231 229 233 225 230 235 238 229 217 211 215 213 210 218 208 220 286 316 332
214 210 214 217 216 214 217 216 216 216 223 212 213 210 200 232 138 186 225 228 230 232 233 230 226 222 219 225 228 227 231 232 225 216 217 218 214 220 212 208 221 271 300
216 213 216 214 216 211 216 217 216 220 223 227 207 225 243 266 224 248 215 231 230 231 229 227 234 229 221 217 216 222 209 239 246 223 220 228 224 228 222 219 218 245 270
218 215 212 214 216 217 221 220 215 217 219 226 223 224 230 237 230 248 271 242 233 240 237 231 227 226 221 225 218 197 196 207 210 202 221 232 244 240 234 231 230 236 264
217 221 218 217 215 217 219 220 221 219 219 224 232 225 221 215 207 222 236 252 257 244 228 230 222 227 220 214 215 197 192 198 189 188 190 200 218 235 236 235 235 232 251
221 221 217 217 220 224 226 222 220 224 220 226 227 232 230 236 240 241 244 249 251 255 237 229 228 215 207 211 201 186 193 198 202 202 197 202 210 223 227 235 236 237 243
221 223 219 220 223 224 225 224 225 228 226 228 234 230 237 234 236 239 233 244 253 236 222 247 185 218 219 201 192 181 189 195 208 206 200 212 217 223 224 228 228 235 242
229 227 223 222 227 227 227 226 226 228 224 231 231 237 239 239 242 233 238 236 241 262 258 198 208 184 176 166 192 187 190 197 207 216 210 210 219 219 227 233 233 239 248
215 219 220 220 224 228 226 225 227 231 229 227 231 234 233 234 239 238 234 233 231 244 263 144 199 143 170 185 185 189 196 194 207 207 217 214 217 227 228 241 241 246 251
228 214 213 213 220 224 224 224 224 226 224 229 229 229 233 234 232 233 233 230 233 230 248 186 125 164 180 186 189 204 197 195 203 210 223 224 213 226 224 236 238 244 251
234 226 221 218 219 220 224 221 224 226 229 227 229 230 232 233 234 233 231 230 233 233 234 233 140 174 192 203 202 196 193 200 202 211 215 230 228 224 225 235 242 246 251
229 221 223 224 226 224 222 220 221 222 221 225 229 233 236 232 235 234 231 219 206 167 165 146 156 156 151 166 183 202 186 195 201 207 218 223 238 224 234 240 247 250 256
233 222 219 221 225 224 224 222 218 221 228 233 235 241 239 232 232 216 191 192 163 164 163 144 142 166 146 153 181 184 186 193 188 193 223 233 245 245 253 253 257 257 256
228 230 223 220 216 215 210 206 209 216 215 182 157 140 151 171 188 200 181 186 167 158 146 182 179 158 163 166 194 173 200 180 194 183 212 229 239 242 247 253 257 260 259
182 168 184 170 160 132 172 193 171 169 168 166 170 165 158 175 164 225 240 189 200 173 185 166 171 199 180 172 163 169 159 169 208 192 201 223 197 232 230 235 243 248 253
103 53 56 101 108 98 145 133 156 136 154 168 170 157 151 117 88 86 99 97 177 128 80 151 150 188 179 178 159 172 188 196 197 129 197 227 193 232 226 239 248 254 256
122 113 88 82 97 55 42 71 58 86 83 74 86 111 127 112 71 65 91 74 71 84 125 185 194 199 179 162 182 180 182 154 90 126 205 232 176 237 215 238 251 256 254
111 93 85 86 92 59 76 78 89 88 82 73 63 57 75 85 122 136 117 131 116 53 48 128 247 228 193 184 170 126 157 172 219 201 189 296 151 256 246 258 262 266 259
119 120 100 83 89 101 93 95 109 118 108 104 78 67 78 119 140 121 109 140 123 105 95 64 40 56 55 133 160 46 149 186 158 209 191 208 169 193 229 188 242 239 281